Time,TemperatureF,DewpointF,PressureIn,WindDirection,WindDirectionDegrees,WindSpeedMPH,WindSpeedGustMPH,Humidity,HourlyPrecipIn,Conditions,Clouds,dailyrainin,SoftwareType,DateUTC
2013-05-15 00:03:00,71.0,57.0,30.17,ENE,58,0.0,0.0,62,0.00,,,0.00,,2013-05-15 04:03:00,
2013-05-15 00:12:00,71.0,57.0,30.17,ENE,58,0.0,0.0,62,0.00,,,0.00,,2013-05-15 04:12:00,
2013-05-15 00:24:00,71.0,58.0,30.17,ENE,58,0.0,0.0,64,0.00,,,0.00,,2013-05-15 04:24:00,
2013-05-15 00:33:00,71.0,58.0,30.17,ESE,106,1.0,9.0,63,0.00,,,0.00,,2013-05-15 04:33:00,
2013-05-15 00:42:00,71.0,58.0,30.17,ESE,106,1.0,9.0,63,0.00,,,0.00,,2013-05-15 04:42:00,
2013-05-15 00:52:00,72.0,57.0,30.17,ESE,103,0.0,9.0,60,0.00,,,0.00,,2013-05-15 04:52:00,
2013-05-15 01:02:00,72.0,57.0,30.17,ESE,118,5.0,13.0,60,0.00,,,0.00,,2013-05-15 05:02:00,
2013-05-15 01:12:00,72.0,57.0,30.17,ESE,118,5.0,13.0,60,0.00,,,0.00,,2013-05-15 05:12:00,
2013-05-15 01:22:00,72.0,57.0,30.17,ESE,106,1.0,10.0,60,0.00,,,0.00,,2013-05-15 05:22:00,
2013-05-15 01:32:00,72.0,57.0,30.17,East,93,0.0,13.0,60,0.00,,,0.00,,2013-05-15 05:32:00,
2013-05-15 01:42:00,72.0,57.0,30.17,East,93,0.0,13.0,60,0.00,,,0.00,,2013-05-15 05:42:00,
2013-05-15 01:52:00,72.0,58.0,30.16,East,100,3.0,12.0,61,0.00,,,0.00,,2013-05-15 05:52:00,
2013-05-15 02:02:00,72.0,58.0,30.17,East,98,3.0,8.0,61,0.00,,,0.00,,2013-05-15 06:02:00,
2013-05-15 02:11:00,72.0,58.0,30.17,East,98,3.0,8.0,61,0.00,,,0.00,,2013-05-15 06:11:00,
2013-05-15 02:21:00,71.0,58.0,30.16,ENE,71,0.0,8.0,63,0.00,,,0.00,,2013-05-15 06:21:00,
2013-05-15 02:32:00,71.0,58.0,30.16,ENE,71,0.0,0.0,63,0.00,,,0.00,,2013-05-15 06:32:00,
2013-05-15 02:42:00,71.0,58.0,30.16,ENE,71,0.0,0.0,63,0.00,,,0.00,,2013-05-15 06:42:00,
2013-05-15 02:52:00,71.0,59.0,30.16,ESE,109,0.0,6.0,65,0.00,,,0.00,,2013-05-15 06:52:00,
2013-05-15 03:01:00,71.0,59.0,30.16,ENE,76,0.0,6.0,66,0.00,,,0.00,,2013-05-15 07:01:00,
2013-05-15 03:11:00,71.0,59.0,30.16,ENE,76,0.0,6.0,66,0.00,,,0.00,,2013-05-15 07:11:00,
2013-05-15 03:22:00,70.0,59.0,30.15,East,96,0.0,3.0,68,0.00,,,0.00,,2013-05-15 07:22:00,
2013-05-15 03:32:00,70.0,59.0,30.15,East,92,0.0,5.0,69,0.00,,,0.00,,2013-05-15 07:32:00,
2013-05-15 03:42:00,70.0,59.0,30.15,East,92,0.0,5.0,69,0.00,,,0.00,,2013-05-15 07:42:00,
2013-05-15 03:52:00,69.0,59.0,30.15,East,99,0.0,3.0,70,0.00,,,0.00,,2013-05-15 07:52:00,
2013-05-15 04:02:00,69.0,59.0,30.14,East,99,0.0,0.0,71,0.00,,,0.00,,2013-05-15 08:02:00,
2013-05-15 04:12:00,69.0,59.0,30.14,East,99,0.0,0.0,71,0.00,,,0.00,,2013-05-15 08:12:00,
2013-05-15 04:21:00,69.0,60.0,30.14,East,99,0.0,0.0,72,0.00,,,0.00,,2013-05-15 08:21:00,
2013-05-15 04:32:00,69.0,60.0,30.14,East,99,0.0,0.0,73,0.00,,,0.00,,2013-05-15 08:32:00,
2013-05-15 04:42:00,69.0,60.0,30.14,East,99,0.0,0.0,73,0.00,,,0.00,,2013-05-15 08:42:00,
2013-05-15 04:53:00,68.0,59.0,30.14,East,99,0.0,0.0,73,0.00,,,0.00,,2013-05-15 08:53:00,
2013-05-15 05:01:00,68.0,59.0,30.14,East,99,0.0,0.0,74,0.00,,,0.00,,2013-05-15 09:01:00,
2013-05-15 05:12:00,68.0,59.0,30.14,East,99,0.0,0.0,74,0.00,,,0.00,,2013-05-15 09:12:00,
2013-05-15 05:22:00,68.0,60.0,30.14,East,99,0.0,0.0,76,0.00,,,0.00,,2013-05-15 09:22:00,
2013-05-15 05:33:00,68.0,61.0,30.14,East,99,0.0,0.0,77,0.00,,,0.00,,2013-05-15 09:33:00,
2013-05-15 05:42:00,68.0,61.0,30.14,East,99,0.0,0.0,77,0.00,,,0.00,,2013-05-15 09:42:00,
2013-05-15 05:53:00,68.0,61.0,30.14,East,99,0.0,0.0,77,0.00,,,0.00,,2013-05-15 09:53:00,
2013-05-15 06:02:00,68.0,61.0,30.15,East,99,0.0,0.0,77,0.00,,,0.00,,2013-05-15 10:02:00,
2013-05-15 06:13:00,68.0,61.0,30.15,East,99,0.0,0.0,77,0.00,,,0.00,,2013-05-15 10:13:00,
2013-05-15 06:23:00,68.0,59.0,30.15,East,99,0.0,0.0,74,0.00,,,0.00,,2013-05-15 10:23:00,
2013-05-15 06:32:00,68.0,59.0,30.15,East,99,0.0,0.0,74,0.00,,,0.00,,2013-05-15 10:32:00,
2013-05-15 06:42:00,68.0,59.0,30.15,East,99,0.0,0.0,74,0.00,,,0.00,,2013-05-15 10:42:00,
2013-05-15 06:52:00,68.0,59.0,30.16,East,99,0.0,0.0,74,0.00,,,0.00,,2013-05-15 10:52:00,
2013-05-15 07:19:00,67.0,59.0,30.16,East,99,0.0,0.0,76,0.00,,,0.00,,2013-05-15 11:19:00,
2013-05-15 07:38:00,66.0,59.0,30.16,East,99,0.0,0.0,79,0.00,,,0.00,,2013-05-15 11:38:00,
2013-05-15 07:48:00,66.0,59.0,30.16,East,99,0.0,0.0,79,0.00,,,0.00,,2013-05-15 11:48:00,
2013-05-15 08:01:00,66.0,60.0,30.16,East,99,0.0,0.0,81,0.00,,,0.00,,2013-05-15 12:01:00,
2013-05-15 08:09:00,67.0,61.0,30.17,East,99,0.0,0.0,82,0.00,,,0.00,,2013-05-15 12:09:00,
2013-05-15 08:15:00,67.0,61.0,30.17,East,99,0.0,0.0,82,0.00,,,0.00,,2013-05-15 12:15:00,
2013-05-15 08:29:00,69.0,61.0,30.17,SE,131,1.0,5.0,76,0.00,,,0.00,,2013-05-15 12:29:00,
2013-05-15 08:36:00,70.0,61.0,30.17,East,82,0.0,8.0,72,0.00,,,0.00,,2013-05-15 12:36:00,
2013-05-15 08:48:00,70.0,61.0,30.17,East,82,0.0,8.0,72,0.00,,,0.00,,2013-05-15 12:48:00,
2013-05-15 08:57:00,72.0,63.0,30.18,East,83,0.0,6.0,74,0.00,,,0.00,,2013-05-15 12:57:00,
2013-05-15 09:10:00,72.0,62.0,30.18,SE,124,0.0,6.0,72,0.00,,,0.00,,2013-05-15 13:10:00,
2013-05-15 09:19:00,72.0,62.0,30.18,SE,124,0.0,6.0,72,0.00,,,0.00,,2013-05-15 13:19:00,
2013-05-15 09:36:00,75.0,63.0,30.19,East,79,0.0,0.0,66,0.00,,,0.00,,2013-05-15 13:36:00,
2013-05-15 09:47:00,75.0,63.0,30.19,East,79,0.0,0.0,66,0.00,,,0.00,,2013-05-15 13:47:00,
2013-05-15 10:00:00,76.0,61.0,30.19,East,100,1.0,6.0,59,0.00,,,0.00,,2013-05-15 14:00:00,
2013-05-15 10:14:00,76.0,61.0,30.19,SE,136,0.0,7.0,59,0.00,,,0.00,,2013-05-15 14:14:00,
2013-05-15 10:27:00,78.0,61.0,30.19,SE,133,1.0,7.0,55,0.00,,,0.00,,2013-05-15 14:27:00,
2013-05-15 10:38:00,78.0,60.0,30.19,SE,126,3.0,7.0,54,0.00,,,0.00,,2013-05-15 14:38:00,
2013-05-15 10:59:00,79.0,60.0,30.19,East,92,0.0,8.0,53,0.00,,,0.00,,2013-05-15 14:59:00,
2013-05-15 11:08:00,80.0,61.0,30.19,SE,133,0.0,6.0,52,0.00,,,0.00,,2013-05-15 15:08:00,
2013-05-15 11:16:00,80.0,61.0,30.19,SE,133,0.0,6.0,52,0.00,,,0.00,,2013-05-15 15:16:00,
2013-05-15 11:29:00,80.0,59.0,30.19,SSW,193,0.0,8.0,49,0.00,,,0.00,,2013-05-15 15:29:00,
2013-05-15 11:37:00,81.0,58.0,30.19,East,89,3.0,8.0,46,0.00,,,0.00,,2013-05-15 15:37:00,
2013-05-15 11:48:00,81.0,58.0,30.19,East,89,3.0,8.0,46,0.00,,,0.00,,2013-05-15 15:48:00,
2013-05-15 12:02:00,82.0,58.0,30.19,ENE,65,1.0,8.0,44,0.00,,,0.00,,2013-05-15 16:02:00,
2013-05-15 12:10:00,82.0,57.0,30.18,ESE,107,2.0,9.0,42,0.00,,,0.00,,2013-05-15 16:10:00,
2013-05-15 12:23:00,82.0,57.0,30.18,ESE,107,2.0,9.0,42,0.00,,,0.00,,2013-05-15 16:23:00,
2013-05-15 12:28:00,83.0,56.0,30.18,ENE,75,0.0,10.0,40,0.00,,,0.00,,2013-05-15 16:28:00,
2013-05-15 12:37:00,84.0,56.0,30.18,ESE,104,0.0,10.0,38,0.00,,,0.00,,2013-05-15 16:37:00,
2013-05-15 12:48:00,84.0,56.0,30.18,ESE,104,0.0,10.0,38,0.00,,,0.00,,2013-05-15 16:48:00,
2013-05-15 13:01:00,85.0,55.0,30.18,ENE,69,1.0,7.0,36,0.00,,,0.00,,2013-05-15 17:01:00,
2013-05-15 13:10:00,85.0,56.0,30.17,East,90,0.0,8.0,37,0.00,,,0.00,,2013-05-15 17:10:00,
2013-05-15 13:28:00,86.0,55.0,30.16,NNE,28,1.0,6.0,35,0.00,,,0.00,,2013-05-15 17:28:00,
2013-05-15 13:37:00,85.0,55.0,30.16,NE,56,0.0,6.0,36,0.00,,,0.00,,2013-05-15 17:37:00,
2013-05-15 13:46:00,85.0,55.0,30.16,NE,56,0.0,6.0,36,0.00,,,0.00,,2013-05-15 17:46:00,
2013-05-15 13:59:00,86.0,54.0,30.15,NE,43,1.0,7.0,34,0.00,,,0.00,,2013-05-15 17:59:00,
2013-05-15 14:07:00,86.0,51.0,30.15,NNE,25,2.0,8.0,30,0.00,,,0.00,,2013-05-15 18:07:00,
2013-05-15 14:16:00,86.0,51.0,30.15,NNE,25,2.0,8.0,30,0.00,,,0.00,,2013-05-15 18:16:00,
2013-05-15 14:37:00,87.0,55.0,30.14,SE,128,3.0,8.0,34,0.00,,,0.00,,2013-05-15 18:37:00,
2013-05-15 14:47:00,87.0,55.0,30.14,SE,128,3.0,8.0,34,0.00,,,0.00,,2013-05-15 18:47:00,
2013-05-15 15:09:00,88.0,55.0,30.13,East,90,1.0,7.0,33,0.00,,,0.00,,2013-05-15 19:09:00,
2013-05-15 15:15:00,88.0,55.0,30.13,East,90,1.0,7.0,33,0.00,,,0.00,,2013-05-15 19:15:00,
2013-05-15 15:30:00,88.0,54.0,30.12,East,88,1.0,6.0,31,0.00,,,0.00,,2013-05-15 19:30:00,
2013-05-15 15:38:00,88.0,53.0,30.12,East,95,3.0,9.0,30,0.00,,,0.00,,2013-05-15 19:38:00,
2013-05-15 15:46:00,88.0,53.0,30.12,East,95,3.0,9.0,30,0.00,,,0.00,,2013-05-15 19:46:00,
2013-05-15 15:58:00,88.0,54.0,30.11,NW,317,0.0,7.0,31,0.00,,,0.00,,2013-05-15 19:58:00,
2013-05-15 16:08:00,88.0,54.0,30.10,SE,138,2.0,7.0,31,0.00,,,0.00,,2013-05-15 20:08:00,
2013-05-15 16:19:00,88.0,54.0,30.10,SE,138,2.0,7.0,31,0.00,,,0.00,,2013-05-15 20:19:00,
2013-05-15 16:30:00,88.0,54.0,30.09,East,96,0.0,5.0,32,0.00,,,0.00,,2013-05-15 20:30:00,
2013-05-15 16:39:00,89.0,54.0,30.09,East,83,0.0,6.0,30,0.00,,,0.00,,2013-05-15 20:39:00,
2013-05-15 16:46:00,89.0,54.0,30.09,East,83,0.0,6.0,30,0.00,,,0.00,,2013-05-15 20:46:00,
2013-05-15 16:59:00,88.0,52.0,30.08,NE,35,1.0,8.0,29,0.00,,,0.00,,2013-05-15 20:59:00,
2013-05-15 17:08:00,88.0,53.0,30.08,NNE,21,0.0,6.0,30,0.00,,,0.00,,2013-05-15 21:08:00,
2013-05-15 17:28:00,88.0,54.0,30.07,SE,129,0.0,5.0,31,0.00,,,0.00,,2013-05-15 21:28:00,
2013-05-15 17:41:00,89.0,54.0,30.07,East,79,1.0,10.0,30,0.00,,,0.00,,2013-05-15 21:41:00,
2013-05-15 17:51:00,89.0,54.0,30.07,East,79,1.0,10.0,30,0.00,,,0.00,,2013-05-15 21:51:00,
2013-05-15 18:18:00,87.0,55.0,30.07,North,4,3.0,9.0,34,0.00,,,0.00,,2013-05-15 22:18:00,
2013-05-15 18:30:00,84.0,59.0,30.06,WNW,286,3.0,10.0,43,0.00,,,0.00,,2013-05-15 22:30:00,
2013-05-15 18:40:00,83.0,59.0,30.06,WSW,258,1.0,10.0,44,0.00,,,0.00,,2013-05-15 22:40:00,
2013-05-15 18:49:00,83.0,59.0,30.06,WSW,258,1.0,10.0,44,0.00,,,0.00,,2013-05-15 22:49:00,
2013-05-15 18:59:00,83.0,59.0,30.06,NNW,329,1.0,9.0,44,0.00,,,0.00,,2013-05-15 22:59:00,
2013-05-15 19:16:00,83.0,58.0,30.06,NNE,25,1.0,8.0,43,0.00,,,0.00,,2013-05-15 23:16:00,
2013-05-15 19:38:00,81.0,59.0,30.06,NNW,339,0.0,13.0,47,0.00,,,0.00,,2013-05-15 23:38:00,
2013-05-15 19:50:00,81.0,59.0,30.06,NNW,339,0.0,13.0,47,0.00,,,0.00,,2013-05-15 23:50:00,
2013-05-15 20:01:00,80.0,60.0,30.06,NNW,340,1.0,9.0,50,0.00,,,0.00,,2013-05-16 00:01:00,
2013-05-15 20:07:00,79.0,59.0,30.06,NNW,328,1.0,8.0,50,0.00,,,0.00,,2013-05-16 00:07:00,
2013-05-15 20:17:00,79.0,59.0,30.06,NNW,328,1.0,8.0,50,0.00,,,0.00,,2013-05-16 00:17:00,
2013-05-15 20:27:00,79.0,60.0,30.06,WNW,294,0.0,12.0,52,0.00,,,0.00,,2013-05-16 00:27:00,
2013-05-15 20:35:00,78.0,59.0,30.05,WNW,294,0.0,0.0,52,0.00,,,0.00,,2013-05-16 00:35:00,
2013-05-15 20:50:00,78.0,60.0,30.06,WNW,294,0.0,0.0,54,0.00,,,0.00,,2013-05-16 00:50:00,
2013-05-15 20:58:00,78.0,60.0,30.06,WNW,294,0.0,0.0,54,0.00,,,0.00,,2013-05-16 00:58:00,
2013-05-15 21:07:00,77.0,60.0,30.06,WNW,294,0.0,0.0,55,0.00,,,0.00,,2013-05-16 01:07:00,
2013-05-15 21:18:00,77.0,60.0,30.06,WNW,294,0.0,0.0,55,0.00,,,0.00,,2013-05-16 01:18:00,
2013-05-15 21:30:00,77.0,60.0,30.07,WNW,294,0.0,0.0,55,0.00,,,0.00,,2013-05-16 01:30:00,
2013-05-15 21:37:00,77.0,60.0,30.07,WNW,294,0.0,0.0,55,0.00,,,0.00,,2013-05-16 01:37:00,
2013-05-15 21:48:00,77.0,60.0,30.07,WNW,294,0.0,0.0,55,0.00,,,0.00,,2013-05-16 01:48:00,
2013-05-15 22:01:00,77.0,60.0,30.07,WNW,294,0.0,0.0,56,0.00,,,0.00,,2013-05-16 02:01:00,
2013-05-15 22:08:00,76.0,60.0,30.07,WNW,294,0.0,0.0,57,0.00,,,0.00,,2013-05-16 02:08:00,
2013-05-15 22:17:00,76.0,60.0,30.07,WNW,294,0.0,0.0,57,0.00,,,0.00,,2013-05-16 02:17:00,
2013-05-15 22:28:00,76.0,60.0,30.08,WNW,294,0.0,0.0,58,0.00,,,0.00,,2013-05-16 02:28:00,
2013-05-15 22:38:00,76.0,61.0,30.08,WNW,294,0.0,0.0,59,0.00,,,0.00,,2013-05-16 02:38:00,
2013-05-15 22:46:00,76.0,61.0,30.08,WNW,294,0.0,0.0,59,0.00,,,0.00,,2013-05-16 02:46:00,
2013-05-15 22:55:00,76.0,61.0,30.08,WNW,294,0.0,0.0,59,0.00,,,0.00,,2013-05-16 02:55:00,
2013-05-15 23:07:00,75.0,61.0,30.09,WNW,294,0.0,0.0,61,0.00,,,0.00,,2013-05-16 03:07:00,
2013-05-15 23:16:00,75.0,61.0,30.09,WNW,294,0.0,0.0,61,0.00,,,0.00,,2013-05-16 03:16:00,
2013-05-15 23:26:00,74.0,60.0,30.09,WNW,294,0.0,0.0,62,0.00,,,0.00,,2013-05-16 03:26:00,
2013-05-15 23:38:00,74.0,60.0,30.09,WNW,294,0.0,0.0,62,0.00,,,0.00,,2013-05-16 03:38:00,
2013-05-15 23:46:00,74.0,60.0,30.09,WNW,294,0.0,0.0,62,0.00,,,0.00,,2013-05-16 03:46:00,
2013-05-15 23:57:00,74.0,60.0,30.09,SE,136,1.0,5.0,62,0.00,,,0.00,,2013-05-16 03:57:00,